Tracking 19489 objects as of 22-Jan-2019
HD Live streaming from Space Station
objects crossing your sky now

COSMOS 1897

Track COSMOS 1897 now!
COSMOS 1897 is classified as:


NORAD ID: 18575
Int'l Code: 1987-096A
Perigee: 35,770.6 km
Apogee: 35,830.0 km
Inclination: 14.4 °
Period: 1,436.4 minutes
Semi major axis: 42171 km
RCS: 10 m2 (large)
Launch date: November 26, 1987
Source: Commonwealth of Independent States (former USSR) (CIS)
Launch site: TYURATAM MISSILE AND SPACE COMPLEX (TTMTR)
aabbcc
Your satellite tracking list
Your tracking list is empty




NASA's NSSDC Master Catalog

Two Line Element Set (TLE):
1 18575U 87096A   19021.48348021 +.00000059 +00000-0 +00000-0 0  9993
2 18575 014.3828 349.0109 0007046 009.9754 350.6631 01.00248528114089
Source of the keplerian elements: AFSPC